(144466) = 2004 EO49

Discovered at Catalina on 2004-03-15 by CSS.

Orbit

Orbit type: Main Belt

Note: WebGL enabled browser required.

epoch2022-01-21.0
epoch JD2459600.5
perihelion date2020-05-22.41646
perihelion JD2458991.91646
argument of perihelion (°)4.04159
ascending node (°)25.57020
inclination (°)3.11632
eccentricity0.0755059
perihelion distance (AU)2.5218435
Tisserand w.r.t. Jupiter3.3
ΔV w.r.t. Earth (km/sec)10.0
semimajor axis (AU)2.7278092
mean anomaly (°)133.13832
mean daily motion (°/day)0.21876750
aphelion distance (AU)2.934
period (years)4.51
P-vector [x]0.86943824
P-vector [y]0.45173661
P-vector [z]0.20002795
Q-vector [x]-0.49348413
Q-vector [y]0.77486121
Q-vector [z]0.39504876
absolute magnitude16.09
phase slope0.15
uncertainty0
referenceMPO 694215
observations used533
oppositions15
arc length (days)7551
first opposition used2001
last opposition used2022
residual rms (arc-secs)0.69
perturbers coarse indicatorM-v
perturbers precise indicator003Ek
first observation date used2001-08-22.0
last observation date used2022-04-25.0
computer namePan
JD of orbit computation2456465.491754
perihelion JD uncertainty (days)1.5012E-04
argument of perihelion uncertainty (°)9.0190E-05
ascending node uncertainty (°)8.3736E-05
inclination uncertainty (°)7.4201E-06
eccentricity uncertainty 7.3550E-08
perihelion distance uncertainty (AU)1.9625E-07
Minimum Orbit Intersection Distances (in AU)
for orbit epoch: 2458200.5, reference: MPO417776
Mercury2.18489
Venus1.80088
Earth1.52737
Mars1.04735
Jupiter2.40322
Saturn6.41074
Uranus15.2918
Neptune27.3045

Observations

547 total observations over interval: 2001 08 22.32606 – 2022 04 25.277212
These data are available for download (format description).

Date (UT) J2000 RA J2000 Dec Magn Location Ref
2001 08 22.32606 21 35 25.97 -19 03 51.2 20.7   608 – Haleakala-AMOS MPS 106757
2001 08 22.33723 21 35 25.39 -19 03 53.1 20.4   608 – Haleakala-AMOS MPS 106757
2001 08 22.34790 21 35 24.84 -19 03 55.7 20.3   608 – Haleakala-AMOS MPS 106757
2002 12 11.30264 05 31 19.62 +27 27 18.4 18.9   704 – Lincoln Laboratory ETS, New Mexico MPS 106757
2002 12 11.31827 05 31 18.68 +27 27 18.2 19.5   704 – Lincoln Laboratory ETS, New Mexico MPS 106757
2002 12 11.33380 05 31 17.60 +27 27 18.0 19.2   704 – Lincoln Laboratory ETS, New Mexico MPS 106757
2002 12 11.34940 05 31 16.64 +27 27 17.9 19.4   704 – Lincoln Laboratory ETS, New Mexico MPS 106757
2003 01 05.22659 05 07 29.02 +27 10 05.1 20.2   704 – Lincoln Laboratory ETS, New Mexico MPS 106758
2003 01 05.24199 05 07 28.18 +27 10 03.7 20.7   704 – Lincoln Laboratory ETS, New Mexico MPS 106758
2003 01 05.27304 05 07 26.81 +27 10 00.7 20.8   704 – Lincoln Laboratory ETS, New Mexico MPS 106758
2003 01 05.28849 05 07 26.07 +27 10 00.1 20.1   704 – Lincoln Laboratory ETS, New Mexico MPS 106758
2004 03 15.36999 12 14 35.83 +00 37 49.7 20.4 V 703 – Catalina Sky Survey MPS 102317
2004 03 15.38140 12 14 35.18 +00 37 53.5 20.2 V 703 – Catalina Sky Survey MPS 102317
2004 03 15.39285 12 14 34.65 +00 37 55.0 20.4 V 703 – Catalina Sky Survey MPS 102317
2004 03 15.40431 12 14 34.12 +00 37 59.3 20.1 V 703 – Catalina Sky Survey MPS 102317
2004 03 17.40043 12 12 54.19 +00 47 10.6 20.2 V 691 – Steward Observatory, Kitt Peak-Spacewatch MPS 102317
2004 03 17.43092 12 12 52.62 +00 47 19.2 20.5 V 691 – Steward Observatory, Kitt Peak-Spacewatch MPS 102317
2004 03 17.46208 12 12 50.98 +00 47 27.9 20.2 V 691 – Steward Observatory, Kitt Peak-Spacewatch MPS 102317
2004 03 18.27933 12 12 09.95 +00 51 13.8 19.6   704 – Lincoln Laboratory ETS, New Mexico MPS 103217
2004 03 18.28866 12 12 09.45 +00 51 16.3 19.7   704 – Lincoln Laboratory ETS, New Mexico MPS 103217
2004 03 18.29050 12 12 09.41 +00 51 17.3 19.7   704 – Lincoln Laboratory ETS, New Mexico MPS 103217
2004 03 18.30055 12 12 08.81 +00 51 20.0 20.5   704 – Lincoln Laboratory ETS, New Mexico MPS 103217
2004 03 18.30211 12 12 08.75 +00 51 19.8 19.9   704 – Lincoln Laboratory ETS, New Mexico MPS 103217
2004 03 18.31227 12 12 08.25 +00 51 23.2 20.1   704 – Lincoln Laboratory ETS, New Mexico MPS 103217
2004 03 18.31390 12 12 08.10 +00 51 22.8 20.1   704 – Lincoln Laboratory ETS, New Mexico MPS 103217
2004 03 18.32392 12 12 07.59 +00 51 26.4 20.3   704 – Lincoln Laboratory ETS, New Mexico MPS 103217
2004 03 18.32545 12 12 07.50 +00 51 26.1 20.1   704 – Lincoln Laboratory ETS, New Mexico MPS 103217
2004 03 18.33575 12 12 07.04 +00 51 29.5 20.4   704 – Lincoln Laboratory ETS, New Mexico MPS 103217
2004 03 18.35301 12 12 06.12 +00 51 34.4 20.6   704 – Lincoln Laboratory ETS, New Mexico MPS 103217
2004 03 18.36412 12 12 05.58 +00 51 37.4 20.1   704 – Lincoln Laboratory ETS, New Mexico MPS 103217
2004 03 18.38118 12 12 04.76 +00 51 42.3 20.0   704 – Lincoln Laboratory ETS, New Mexico MPS 103217
2004 03 18.39258 12 12 04.08 +00 51 44.4 20.4   704 – Lincoln Laboratory ETS, New Mexico MPS 103217
2004 03 19.29918 12 11 18.17 +00 55 57.1 19.9   704 – Lincoln Laboratory ETS, New Mexico MPS 103217
2004 03 19.31054 12 11 17.61 +00 55 59.1 20.2   704 – Lincoln Laboratory ETS, New Mexico MPS 103217
2004 03 19.32179 12 11 16.98 +00 56 03.4 20.5   704 – Lincoln Laboratory ETS, New Mexico MPS 103217
2004 03 19.33298 12 11 16.49 +00 56 05.5 20.0   704 – Lincoln Laboratory ETS, New Mexico MPS 103217
2004 03 28.32916 12 03 38.67 +01 36 55.0 19.5   704 – Lincoln Laboratory ETS, New Mexico MPS 103217
2004 03 28.33966 12 03 38.09 +01 36 57.8 19.9   704 – Lincoln Laboratory ETS, New Mexico MPS 103217
2004 03 28.36002 12 03 37.01 +01 37 03.0 20.2   704 – Lincoln Laboratory ETS, New Mexico MPS 103217
2004 03 28.37020 12 03 36.66 +01 37 06.8 20.2   704 – Lincoln Laboratory ETS, New Mexico MPS 103217
2004 03 29.21263 12 02 54.71 +01 40 45.3 20.4 V 691 – Steward Observatory, Kitt Peak-Spacewatch MPS 103217
2004 03 29.24164 12 02 53.22 +01 40 52.8 20.1 V 691 – Steward Observatory, Kitt Peak-Spacewatch MPS 103217
2004 03 29.26938 12 02 51.81 +01 40 59.9 20.2 V 691 – Steward Observatory, Kitt Peak-Spacewatch MPS 103217
2004 04 15.13637 11 50 23.87 +02 41 59.6 20.8 V 691 – Steward Observatory, Kitt Peak-Spacewatch MPS 104365
2004 04 15.16703 11 50 22.71 +02 42 03.2 20.6 V 691 – Steward Observatory, Kitt Peak-Spacewatch MPS 104365
2004 04 15.19677 11 50 21.53 +02 42 09.8 21.1 V 691 – Steward Observatory, Kitt Peak-Spacewatch MPS 104365
2004 04 22.14006 11 46 33.06 +02 58 02.7 21.4 V 691 – Steward Observatory, Kitt Peak-Spacewatch MPS 105128
2004 04 22.16798 11 46 32.21 +02 58 05.5 20.5 V 691 – Steward Observatory, Kitt Peak-Spacewatch MPS 105128
2004 04 22.19605 11 46 31.36 +02 58 08.5 21.1 V 691 – Steward Observatory, Kitt Peak-Spacewatch MPS 105128
2004 04 25.13659 11 45 12.64 +03 02 54.5 20.7 V 691 – Steward Observatory, Kitt Peak-Spacewatch MPS 106269
2004 04 25.16845 11 45 11.79 +03 02 57.0 21.3 V 691 – Steward Observatory, Kitt Peak-Spacewatch MPS 106269
2004 04 25.20113 11 45 10.92 +03 02 59.7 20.6 V 691 – Steward Observatory, Kitt Peak-Spacewatch MPS 106269
2006 09 14.40488 01 40 31.00 +09 19 27.3 20.0 V 703 – Catalina Sky Survey MPS 178459
2006 09 14.41141 01 40 30.86 +09 19 27.5 20.1 V 703 – Catalina Sky Survey MPS 178459
2006 09 14.41958 01 40 30.54 +09 19 26.1 19.6 V 703 – Catalina Sky Survey MPS 178459
2006 09 14.42604 01 40 30.46 +09 19 25.0 19.9 V 703 – Catalina Sky Survey MPS 178459
2006 09 20.28962 01 37 30.08 +09 08 39.7 19.6   704 – Lincoln Laboratory ETS, New Mexico MPS 179330
2006 09 20.30104 01 37 29.72 +09 08 38.2 19.8   704 – Lincoln Laboratory ETS, New Mexico MPS 179330
2006 09 20.31253 01 37 29.26 +09 08 36.5 19.5   704 – Lincoln Laboratory ETS, New Mexico MPS 179330
2006 09 20.32393 01 37 28.79 +09 08 36.0 19.7   704 – Lincoln Laboratory ETS, New Mexico MPS 179330
2006 09 25.35854 01 34 16.15 +08 56 09.1 19.4 V 691 – Steward Observatory, Kitt Peak-Spacewatch MPS 181035
2006 09 25.35990 01 34 16.10 +08 56 08.7 19.2 V G96 – Mt. Lemmon Survey MPS 181035
2006 09 25.36799 01 34 15.74 +08 56 07.2 19.4 V G96 – Mt. Lemmon Survey MPS 181035
2006 09 25.37592 01 34 15.41 +08 56 06.3 19.6 V 691 – Steward Observatory, Kitt Peak-Spacewatch MPS 181035
2006 09 25.37603 01 34 15.42 +08 56 05.8 19.4 V G96 – Mt. Lemmon Survey MPS 181035
2006 09 25.38425 01 34 15.06 +08 56 04.5 19.3 V G96 – Mt. Lemmon Survey MPS 181035
2006 09 25.39329 01 34 14.66 +08 56 03.3 19.8 V 691 – Steward Observatory, Kitt Peak-Spacewatch MPS 181035
2006 09 27.28658 01 32 54.54 +08 50 41.4 19.3   704 – Lincoln Laboratory ETS, New Mexico MPS 181035
2006 09 27.29888 01 32 53.87 +08 50 38.8 19.6   704 – Lincoln Laboratory ETS, New Mexico MPS 181035
2006 09 27.31119 01 32 53.42 +08 50 37.5 19.8   704 – Lincoln Laboratory ETS, New Mexico MPS 181035
2006 09 27.32348 01 32 52.74 +08 50 34.4 19.4   704 – Lincoln Laboratory ETS, New Mexico MPS 181035
2006 09 29.34010 01 31 23.02 +08 44 29.2   691 – Steward Observatory, Kitt Peak-Spacewatch MPS 181035
2006 09 29.35735 01 31 22.18 +08 44 26.0   691 – Steward Observatory, Kitt Peak-Spacewatch MPS 181035
2006 09 29.37466 01 31 21.36 +08 44 22.9   691 – Steward Observatory, Kitt Peak-Spacewatch MPS 181035
2006 10 15.37279 01 17 51.93 +07 47 13.0 18.8 V 703 – Catalina Sky Survey MPS 182941
2006 10 15.37918 01 17 51.54 +07 47 11.1 18.5 V 703 – Catalina Sky Survey MPS 182941
2006 10 15.38554 01 17 51.21 +07 47 10.3 18.6 V 703 – Catalina Sky Survey MPS 182941
2006 10 15.39191 01 17 50.85 +07 47 09.2 18.9 V 703 – Catalina Sky Survey MPS 182941
2006 10 20.24984 01 13 35.84 +07 28 45.8 18.8 R 644 – Palomar Mountain/NEAT MPS 185442
2006 10 20.27012 01 13 34.73 +07 28 41.4 18.6 R 644 – Palomar Mountain/NEAT MPS 185442
2006 10 20.29043 01 13 33.64 +07 28 36.5 18.8 R 644 – Palomar Mountain/NEAT MPS 185442
2006 10 27.23626 01 07 47.13 +07 03 52.1 19.1 V G96 – Mt. Lemmon Survey MPS 185442
2006 10 27.24580 01 07 46.66 +07 03 50.3 19.1 V G96 – Mt. Lemmon Survey MPS 185442
2006 10 27.25539 01 07 46.20 +07 03 48.4 19.1 V G96 – Mt. Lemmon Survey MPS 185442
2006 10 27.26479 01 07 45.69 +07 03 46.4 19.2 V G96 – Mt. Lemmon Survey MPS 185442
